Snowfall_Accumulation
0.0 0.0 0.0 0.0 0.0 0.0 0.0 0.0 0.0 0.0 0.0 0.0 0.0 0.0 0.0 0.0 0.0 0.0 0.0 0.0 0.0 0.0 0.0 0.0 0.0 0.0 0.0 0.0 0.0 0.0 0.0 0.2 0.0 0.0 0.0 0.0 0.0 0.0 0.0 0.0 0.0 0.0 0.0 0.0 0.0
0.0 0.0 0.0 0.0 0.0 0.0 0.0 0.0 0.0 0.0 0.0 0.0 0.0 0.0 0.0 0.0 0.0 0.0 0.0 0.0 0.0 0.0 0.0 0.0 0.0 0.0 0.0 0.0 0.0 0.0 0.2 0.0 0.0 0.0 0.0 0.0 0.0 0.0 0.0 0.0 0.0 0.0 0.0 0.0 0.0
0.0 0.0 0.0 0.0 0.0 0.0 0.0 0.0 0.0 0.0 0.0 0.0 0.0 0.0 0.0 0.0 0.0 0.0 0.0 0.0 0.0 0.0 0.0 0.0 0.0 0.0 0.0 0.0 0.0 0.0 0.0 0.0 0.0 0.0 0.0 0.0 0.0 0.0 0.0 0.0 0.0 0.0 0.0 0.0 0.0
0.0 0.0 0.0 0.0 0.0 0.0 0.0 0.0 0.0 0.0 0.0 0.0 0.0 0.0 0.0 0.0 0.3 0.0 0.0 0.0 0.0 0.0 0.0 0.0 0.0 0.0 0.0 0.0 0.0 0.0 0.0 0.0 0.0 0.0 0.0 0.0 0.0 0.0 0.0 0.0 0.0 0.0 0.0 0.0 0.0
0.0 0.0 0.0 0.0 0.0 0.0 0.0 0.0 0.0 0.0 0.0 0.0 0.0 0.0 0.0 0.0 0.0 0.0 0.0 0.0 0.0 0.0 0.0 0.0 0.0 0.0 0.0 0.0 0.0 0.0 0.0 0.0 0.0 0.0 0.0 0.0 0.0 0.0 0.0 0.0 0.0 0.0 0.0 0.0 0.0
0.0 0.0 0.0 0.0 0.0 0.0 0.0 0.0 0.0 0.0 0.0 0.0 0.0 0.0 0.0 0.0 0.0 0.0 0.0 0.0 0.0 0.0 0.0 0.0 0.0 0.0 0.0 0.0 0.0 0.0 0.0 0.0 0.0 0.0 0.0 0.0 0.0 0.0 0.0 0.0 0.0 0.0 0.0 0.0 0.0
0.0 0.0 0.0 0.0 0.0 0.0 0.0 0.0 0.0 0.0 0.0 0.0 0.0 0.0 0.0 0.0 0.0 0.0 0.0 0.0 0.0 0.0 0.0 0.0 0.0 0.0 0.0 0.0 0.0 0.0 0.5 0.0 0.0 0.0 0.0 0.0 0.0 0.0 0.0 0.0 0.0 0.0 0.0 0.0 0.0
0.0 0.0 0.0 0.0 0.0 0.0 0.0 0.0 0.0 0.0 0.0 0.0 0.0 0.0 0.0 0.0 0.0 0.0 0.0 0.0 0.0 0.0 0.0 0.0 0.0 0.0 0.0 0.0 0.0 0.5 0.1 0.0 0.0 0.0 0.0 0.0 3.9 0.0 0.0 0.0 0.0 0.0 0.0 0.0 0.0
0.0 0.0 0.0 0.0 0.0 0.0 0.0 0.0 0.0 0.0 0.0 0.0 0.0 0.0 0.0 0.0 0.0 0.0 0.0 0.0 0.0 0.0 0.0 0.0 0.0 0.0 0.0 5.4 2.4 1.0 1.7 0.2 0.0 0.0 0.0 0.0 0.2 0.0 0.0 0.0 0.0 0.0 0.0 0.0 0.0
0.0 0.0 0.0 0.0 0.0 0.0 0.0 0.0 0.0 0.0 0.0 0.0 0.0 0.6 0.0 0.0 0.0 0.0 0.0 0.0 0.0 0.0 0.0 0.0 0.0 0.1 0.7 11.5 10.7 2.0 3.2 0.5 0.6 0.0 0.0 0.7 0.0 0.0 0.0 0.0 0.0 0.0 0.0 0.0 0.0
0.0 0.0 0.0 0.0 0.0 0.0 0.0 0.0 0.0 0.0 0.0 0.0 0.0 0.0 0.0 0.0 0.0 0.0 0.0 0.0 0.0 0.0 3.6 2.2 3.4 4.1 0.9 1.1 2.7 1.9 2.0 1.0 0.0 0.0 0.0 0.0 0.3 0.0 0.0 0.0 0.0 0.0 0.0 0.0 0.0
0.0 0.0 0.0 0.0 0.0 0.0 0.0 0.0 0.0 0.0 0.3 0.0 0.0 0.0 0.0 0.0 0.0 0.0 0.0 0.0 0.0 6.0 3.9 2.6 8.0 0.0 0.0 0.0 2.7 3.9 2.2 1.0 0.0 0.0 0.0 0.0 0.0 0.0 0.0 0.0 0.0 0.0 0.0 0.0 0.0
0.0 0.0 0.0 0.0 0.0 0.0 0.0 0.0 0.0 0.0 1.0 0.0 0.0 0.0 0.0 0.0 0.0 0.0 0.0 0.0 0.0 3.5 4.7 2.3 0.3 0.0 0.0 2.3 6.7 3.0 2.2 1.0 0.8 0.5 0.0 0.0 1.2 0.0 0.0 0.0 0.0 0.0 0.0 0.0 0.0
0.0 0.0 0.0 0.0 0.0 0.0 0.0 0.0 0.0 0.0 21.8 3.3 1.7 0.0 0.0 0.0 0.2 0.0 0.0 0.0 0.1 0.4 0.3 1.3 0.0 0.0 2.3 5.5 6.0 4.3 1.6 1.9 2.1 9.0 10.0 0.0 5.3 0.0 0.0 0.0 0.0 0.0 0.0 0.0 0.0
0.0 0.0 0.0 0.0 0.0 0.0 0.0 0.0 0.0 0.0 20.9 4.8 2.9 0.0 0.0 0.0 1.5 0.0 0.0 0.0 3.2 0.7 1.4 8.5 0.1 0.2 10.5 2.7 5.9 7.0 4.4 1.4 3.3 8.7 7.8 3.5 7.3 2.8 0.0 0.0 0.0 0.0 0.0 0.0 0.0
0.0 0.0 0.0 0.0 0.0 0.0 0.0 0.0 0.0 26.3 21.3 12.2 2.8 6.3 3.3 2.8 0.0 0.0 0.0 0.0 0.0 2.0 0.1 0.3 0.0 0.5 1.9 0.3 1.3 0.0 2.3 2.0 6.0 11.4 14.5 2.1 4.1 6.5 2.2 0.1 0.0 0.0 0.0 0.0 0.0
0.0 0.0 0.0 0.0 0.0 0.0 0.0 0.0 27.8 19.9 8.7 8.5 8.3 7.8 10.0 8.3 3.9 0.0 1.9 4.9 9.2 17.0 17.9 6.0 6.3 0.8 0.0 6.9 2.1 8.7 10.4 22.9 25.3 18.4 8.0 5.5 6.4 3.7 1.8 0.0 0.0 0.0 0.0 0.0 0.0
0.0 0.0 0.0 0.0 0.0 0.0 0.0 11.4 16.4 6.1 9.2 5.5 5.1 3.9 10.2 3.1 5.5 1.0 1.8 8.5 2.5 2.7 13.5 16.2 16.5 3.6 0.0 4.8 12.0 8.0 7.1 14.6 9.0 6.4 3.6 2.7 5.0 5.7 0.0 0.0 0.0 0.0 0.0 0.0 0.0
0.0 0.0 0.0 0.0 0.0 0.0 0.0 21.0 8.0 7.8 8.0 10.1 5.2 13.2 8.6 3.4 4.1 6.2 7.0 3.4 0.0 0.1 9.5 5.4 10.6 0.0 0.0 0.8 3.7 5.8 10.6 3.9 4.3 3.4 3.6 2.8 3.1 0.0 0.0 0.0 0.0 0.0 0.0 0.0 0.0
0.0 0.0 0.0 0.0 0.0 0.0 4.6 12.5 5.3 6.0 7.5 4.7 10.8 1.6 5.4 4.4 5.3 5.8 3.4 0.0 0.0 0.0 0.0 1.9 10.3 0.5 0.0 0.0 0.0 5.9 1.1 7.6 13.7 8.1 6.3 2.6 3.3 9.6 8.2 9.5 1.5 1.0 1.7 0.0 0.0
0.0 0.0 0.0 0.0 0.0 0.0 20.3 8.6 4.4 0.0 0.0 0.2 0.1 0.8 0.5 2.4 2.3 3.6 2.2 0.0 0.0 0.0 0.0 0.2 9.4 5.9 7.0 7.6 5.5 7.4 7.7 5.2 2.5 3.8 3.9 3.0 7.8 7.8 10.8 10.1 6.7 7.8 0.9 0.0 0.0
0.0 9.6 0.0 0.0 0.2 13.1 9.5 3.0 0.0 0.0 0.0 0.0 0.0 0.8 1.5 1.1 1.6 5.1 5.8 1.3 0.2 0.0 0.2 0.0 8.5 11.2 4.4 0.0 0.0 0.0 1.0 1.5 9.6 4.5 3.6 5.9 7.9 0.0 0.0 0.0 9.7 5.4 0.0 0.0 0.0
0.0 1.9 0.0 0.0 12.2 6.9 0.0 2.1 3.9 0.0 0.0 0.0 0.2 0.0 0.0 1.3 2.1 0.8 2.6 0.0 0.0 0.0 1.1 0.0 7.1 10.7 7.1 2.8 0.0 4.7 2.1 2.8 5.3 7.5 7.1 7.5 8.7 0.0 0.0 0.0 0.0 7.5 0.0 0.0 0.0
0.0 12.1 0.0 0.0 0.0 2.7 4.8 6.4 2.2 0.0 0.0 0.1 0.5 0.0 1.3 0.3 0.0 1.2 6.7 0.0 0.0 0.0 0.0 0.4 7.5 11.0 9.2 5.1 3.8 8.6 3.4 4.8 11.1 12.6 3.2 8.4 5.1 2.8 1.0 3.4 6.5 4.1 0.0 0.0 0.0
0.1 7.0 0.1 5.0 3.0 0.0 0.0 1.0 0.6 2.7 0.0 0.0 0.0 1.1 4.4 3.1 0.6 0.3 3.6 2.8 0.0 0.0 0.0 0.7 11.8 5.6 3.5 1.8 3.7 4.5 4.2 4.0 9.5 4.2 5.3 2.5 1.3 1.4 1.3 2.8 7.7 0.0 0.0 0.0 0.0
2.7 3.6 1.6 0.1 0.0 0.0 0.2 0.6 0.5 0.1 0.5 0.6 0.4 0.3 2.3 3.1 2.9 1.6 0.8 3.6 3.5 0.0 0.1 0.2 7.1 6.9 5.3 0.0 2.4 4.0 0.5 1.6 0.6 0.2 0.6 0.0 0.1 0.0 0.0 0.0 0.0 0.0 0.0 0.0 0.0
0.0 0.3 5.5 0.7 0.7 1.7 1.6 0.4 0.3 0.6 0.1 0.3 0.6 2.0 1.3 0.5 0.2 0.0 0.1 0.0 0.2 0.1 0.0 0.1 4.6 7.2 5.9 2.7 0.7 3.8 3.4 0.3 0.0 0.0 0.0 2.6 0.0 0.0 0.0 0.0 0.0 0.0 0.0 0.0 0.0